TDO-2 SPACECRAFT (45464 NORAD) Tracking and Keplerian Element Data

This shows tracking and keplerian element data for the satellite.

Feedback or suggestion? Click here.




ElementValue
Catalog45464
NameTDO-2 SPACECRAFT
Epoch Orbit1
Epoch Day87.29241302
Epoch Year2020
RAAN318.9837
Inclination26.498
Eccentricity0.7282322
Argument of Perigee179.9623
Mean Anonmoly357.3555
Mean Motion2.30488966
Decay Rate-9.3E-07
L11 45464U 20022A 20087.29241302 -.00000093 00000-0 00000+0 0 9991
L22 45464 26.4980 318.9837 7282322 179.9623 357.3555 2.30488966 16

Live tracking and technical data element details for TDO-2 SPACECRAFT (NORAD 45464). TDO-2 SPACECRAFT can be tracked NOW for your location showing map with azimuth and elevation plus other details from your city location.

Track the satellite on the map from your city or location and see movement details for azimuth, elevation, latitude, longitude, range, height, and movement on the map or in text.







IsCatalogInMostPopularTable: catalog: 45464, numindb: 29
Update: records affected: 1



GetName: 45464 TDO-2 SPACECRAFT

Hit Count: updated at: Thu, 09 Jul 2020 01:12:49 GMT